Location: Unspecified
(0.0000°N, 0.0000°E)
Time: 06:49:32
(UTC+00:00)

LES 2 - Pass Details

Date: 12 October 2025
Orbit: 2783 x 14792 km, 32.1° (Epoch: 30 October)

Event Time Altitude Azimuth Distance (km) Brightness Sun altitude
Exits shadow 02:19:27 23° 210° (SSW) 5,567 ? -51.2°
Maximum altitude 02:26:58 27° 179° (S) 6,203 ? -49.3°
Drops below altitude 10° 03:01:49 10° 121° (ESE) 12,753 ? -40.8°
Sets 03:32:02 0° 105° (ESE) 17,220 ? -33.3°
